| time (UTC) | temp C | wind direction | speed KPH | gust KPH | rain 1hr cm | rain 24hr cm | rain mn cm | humidity % | barometer mb |
| 20260502205046 | 27 | 22 | 4.8 | 6.4 | 0.00 | 0.00 | 0.00 | 9 | 1017.3 |
| 20260502204044 | 28 | 134 | 8.0 | 14.5 | 0.00 | 0.00 | 0.00 | 8 | 1017.7 |
| 20260502203129 | 28 | 83 | 4.8 | 9.7 | 0.00 | 0.00 | 0.00 | 8 | 1017.8 |
| 20260502202227 | 28 | 179 | 8.0 | 16.1 | 0.00 | 0.00 | 0.00 | 9 | 1017.9 |
| 20260502201228 | 28 | 185 | 6.4 | 8.0 | 0.00 | 0.00 | 0.00 | 9 | 1018.1 |
| 20260502200228 | 28 | 157 | 4.8 | 11.3 | 0.00 | 0.00 | 0.00 | 9 | 1018.3 |
| 20260502194329 | 27 | 20 | 3.2 | 6.4 | 0.00 | 0.00 | 0.00 | 10 | 1018.5 |
| 20260502193427 | 27 | 168 | 11.3 | 17.7 | 0.00 | 0.00 | 0.00 | 11 | 1018.7 |
| 20260502193327 | 27 | 166 | 9.7 | 16.1 | 0.00 | 0.00 | 0.00 | 10 | 1018.8 |
| 20260502191427 | 26 | 249 | 1.6 | 4.8 | 0.00 | 0.00 | 0.00 | 11 | 1019.2 |
| 20260502190428 | 26 | 281 | 1.6 | 4.8 | 0.00 | 0.00 | 0.00 | 11 | 1019.3 |
| 20260502185429 | 27 | 236 | 3.2 | 11.3 | 0.00 | 0.00 | 0.00 | 11 | 1019.5 |
| 20260502184428 | 26 | 181 | 4.8 | 8.0 | 0.00 | 0.00 | 0.00 | 10 | 1019.8 |
| 20260502183443 | 25 | 238 | 0.0 | 0.0 | 0.00 | 0.00 | 0.00 | 12 | 1020.0 |
| 20260502182429 | 25 | 270 | 0.0 | 0.0 | 0.00 | 0.00 | 0.00 | 12 | 1020.1 |
| 20260502181428 | 25 | 9 | 3.2 | 6.4 | 0.00 | 0.00 | 0.00 | 12 | 1020.4 |
| 20260502180526 | 25 | 157 | 0.0 | 1.6 | 0.00 | 0.00 | 0.00 | 13 | 1020.5 |
| 20260502163926 | 21 | 199 | 3.2 | 8.0 | 0.00 | 0.00 | 0.00 | 18 | 1021.7 |
| 20260502162926 | 21 | 202 | 0.0 | 0.0 | 0.00 | 0.00 | 0.00 | 18 | 1021.7 |
| 20260502161944 | 21 | 189 | 1.6 | 4.8 | 0.00 | 0.00 | 0.00 | 20 | 1021.7 |
| 20260502160945 | 20 | 96 | 0.0 | 0.0 | 0.00 | 0.00 | 0.00 | 20 | 1021.8 |
| 20260502152028 | 18 | 202 | 0.0 | 0.0 | 0.00 | 0.00 | 0.00 | 22 | 1022.0 |
| 20260502151127 | 18 | 247 | 0.0 | 0.0 | 0.00 | 0.00 | 0.00 | 22 | 1022.0 |
| 20260502150128 | 18 | 202 | 3.2 | 4.8 | 0.00 | 0.00 | 0.00 | 22 | 1022.1 |
| 20260502122927 | 9 | 112 | 0.0 | 0.0 | 0.00 | 0.00 | 0.00 | 39 | 1020.7 |
| 20260502122826 | 9 | 112 | 0.0 | 0.0 | 0.00 | 0.00 | 0.00 | 39 | 1020.7 |
| 20260502121829 | 10 | 209 | 1.6 | 3.2 | 0.00 | 0.00 | 0.00 | 38 | 1020.6 |
| 20260502120827 | 10 | 67 | 0.0 | 1.6 | 0.00 | 0.00 | 0.00 | 38 | 1020.4 |
| 20260502115828 | 10 | 360 | 0.0 | 0.0 | 0.00 | 0.00 | 0.00 | 37 | 1020.3 |
| 20260502114826 | 10 | 90 | 0.0 | 0.0 | 0.00 | 0.00 | 0.00 | 36 | 1020.3 |
| 20260502114728 | 10 | 90 | 0.0 | 0.0 | 0.00 | 0.00 | 0.00 | 36 | 1020.3 |
| 20260502113729 | 10 | 45 | 1.6 | 3.2 | 0.00 | 0.00 | 0.00 | 39 | 1020.3 |
| 20260502112827 | 10 | 22 | 0.0 | 0.0 | 0.00 | 0.00 | 0.00 | 37 | 1020.4 |
| 20260502111827 | 11 | 22 | 0.0 | 0.0 | 0.00 | 0.00 | 0.00 | 35 | 1020.4 |
| 20260502110845 | 11 | 45 | 0.0 | 0.0 | 0.00 | 0.00 | 0.00 | 37 | 1020.3 |
| 20260502105827 | 11 | 67 | 0.0 | 0.0 | 0.00 | 0.00 | 0.00 | 37 | 1020.2 |
| 20260502104827 | 10 | 292 | 3.2 | 4.8 | 0.00 | 0.00 | 0.00 | 38 | 1020.3 |
| 20260502103926 | 10 | 315 | 0.0 | 0.0 | 0.00 | 0.00 | 0.00 | 40 | 1020.3 |
| 20260502102929 | 10 | 22 | 0.0 | 0.0 | 0.00 | 0.00 | 0.00 | 39 | 1020.2 |
| 20260502101929 | 11 | 22 | 0.0 | 0.0 | 0.00 | 0.00 | 0.00 | 36 | 1020.2 |
| 20260502091126 | 13 | 341 | 1.6 | 3.2 | 0.00 | 0.00 | 0.00 | 30 | 1020.0 |
| 20260502090226 | 13 | 337 | 1.6 | 3.2 | 0.00 | 0.00 | 0.00 | 28 | 1020.0 |
| 20260502090128 | 13 | 337 | 1.6 | 3.2 | 0.00 | 0.00 | 0.00 | 27 | 1020.0 |
| 20260502070626 | 14 | 22 | 0.0 | 1.6 | 0.00 | 0.00 | 0.00 | 27 | 1019.7 |
| 20260502065627 | 15 | 90 | 0.0 | 0.0 | 0.00 | 0.00 | 0.00 | 26 | 1019.7 |
| 20260502064644 | 16 | 90 | 0.0 | 0.0 | 0.00 | 0.00 | 0.00 | 23 | 1019.5 |
| 20260502063627 | 16 | 90 | 1.6 | 3.2 | 0.00 | 0.00 | 0.00 | 21 | 1019.5 |
| 20260502061627 | 16 | 180 | 1.6 | 3.2 | 0.00 | 0.00 | 0.00 | 21 | 1019.3 |
| 20260502060726 | 17 | 135 | 0.0 | 1.6 | 0.00 | 0.00 | 0.00 | 21 | 1019.2 |
| 20260502055737 | 17 | 112 | 0.0 | 0.0 | 0.00 | 0.00 | 0.00 | 20 | 1018.9 |
| 20260502054820 | 17 | 90 | 0.0 | 0.0 | 0.00 | 0.00 | 0.00 | 21 | 1019.0 |
| 20260502053820 | 17 | 90 | 0.0 | 1.6 | 0.00 | 0.00 | 0.00 | 19 | 1018.8 |
| 20260502052820 | 18 | 90 | 0.0 | 0.0 | 0.00 | 0.00 | 0.00 | 18 | 1018.8 |
| 20260502051820 | 18 | 202 | 0.0 | 0.0 | 0.00 | 0.00 | 0.00 | 18 | 1018.6 |
| 20260502045834 | 19 | 90 | 0.0 | 1.6 | 0.00 | 0.00 | 0.00 | 14 | 1018.5 |
| 20260502044920 | 20 | 292 | 0.0 | 0.0 | 0.00 | 0.00 | 0.00 | 14 | 1018.2 |
| 20260502043918 | 20 | 337 | 0.0 | 1.6 | 0.00 | 0.00 | 0.00 | 14 | 1018.1 |
| 20260502041936 | 21 | 331 | 4.8 | 12.9 | 0.00 | 0.00 | 0.00 | 14 | 1017.8 |
| 20260502041020 | 20 | 358 | 4.8 | 11.3 | 0.00 | 0.00 | 0.00 | 13 | 1017.7 |
| 20260502040042 | 20 | 342 | 4.8 | 9.7 | 0.00 | 0.00 | 0.00 | 14 | 1017.5 |
| 20260502035119 | 21 | 315 | 0.0 | 4.8 | 0.00 | 0.00 | 0.00 | 15 | 1017.4 |
| 20260502034121 | 21 | 334 | 3.2 | 8.0 | 0.00 | 0.00 | 0.00 | 14 | 1017.2 |
| 20260502033137 | 21 | 335 | 4.8 | 8.0 | 0.00 | 0.00 | 0.00 | 14 | 1017.1 |
| 20260502031135 | 22 | 352 | 3.2 | 6.4 | 0.00 | 0.00 | 0.00 | 13 | 1016.7 |
| 20260502030234 | 22 | 313 | 6.4 | 12.9 | 0.00 | 0.00 | 0.00 | 13 | 1016.6 |
| 20260502025235 | 22 | 335 | 6.4 | 11.3 | 0.00 | 0.00 | 0.00 | 13 | 1016.3 |
| 20260502024219 | 22 | 21 | 3.2 | 6.4 | 0.00 | 0.00 | 0.00 | 12 | 1016.4 |
| 20260502023219 | 23 | 344 | 3.2 | 6.4 | 0.00 | 0.00 | 0.00 | 12 | 1016.1 |
| 20260502022219 | 23 | 6 | 6.4 | 9.7 | 0.00 | 0.00 | 0.00 | 12 | 1016.0 |
| 20260502021236 | 23 | 332 | 9.7 | 12.9 | 0.00 | 0.00 | 0.00 | 12 | 1015.7 |
| 20260502020335 | 24 | 349 | 4.8 | 12.9 | 0.00 | 0.00 | 0.00 | 11 | 1015.9 |
| 20260502015335 | 25 | 337 | 8.0 | 19.3 | 0.00 | 0.00 | 0.00 | 11 | 1015.7 |
| 20260502014336 | 25 | 356 | 12.9 | 19.3 | 0.00 | 0.00 | 0.00 | 10 | 1015.6 |
| 20260502013419 | 25 | 351 | 6.4 | 11.3 | 0.00 | 0.00 | 0.00 | 10 | 1015.6 |
| 20260502012419 | 25 | 18 | 14.5 | 24.1 | 0.00 | 0.00 | 0.00 | 10 | 1015.6 |
| 20260502011420 | 25 | 3 | 12.9 | 19.3 | 0.00 | 0.00 | 0.00 | 10 | 1015.6 |
| 20260502010437 | 25 | 338 | 6.4 | 12.9 | 0.00 | 0.00 | 0.00 | 10 | 1015.6 |
| 20260502005419 | 25 | 342 | 8.0 | 16.1 | 0.00 | 0.00 | 0.00 | 10 | 1015.6 |
| 20260502003435 | 25 | 2 | 6.4 | 11.3 | 0.00 | 0.00 | 0.00 | 8 | 1015.6 |
| 20260502002520 | 25 | 349 | 17.7 | 29.0 | 0.00 | 0.00 | 0.00 | 10 | 1015.6 |
| 20260502001518 | 26 | 301 | 8.0 | 12.9 | 0.00 | 0.00 | 0.00 | 10 | 1015.6 |
| 20260502000537 | 25 | 348 | 9.7 | 22.5 | 0.00 | 0.00 | 0.00 | 9 | 1015.6 |
| 20260501233636 | 25 | 336 | 12.9 | 30.6 | 0.00 | 0.00 | 0.00 | 9 | 1015.6 |
| 20260501232719 | 25 | 335 | 14.5 | 24.1 | 0.00 | 0.00 | 0.00 | 9 | 1015.4 |
| 20260501231734 | 25 | 303 | 19.3 | 29.0 | 0.00 | 0.00 | 0.00 | 10 | 1015.3 |
| 20260501230820 | 25 | 310 | 14.5 | 25.7 | 0.00 | 0.00 | 0.00 | 10 | 1015.5 |
| 20260501224919 | 26 | 1 | 16.1 | 29.0 | 0.00 | 0.00 | 0.00 | 11 | 1015.7 |
| 20260501222034 | 25 | 18 | 8.0 | 14.5 | 0.00 | 0.00 | 0.00 | 11 | 1015.9 |
| 20260501221035 | 26 | 322 | 19.3 | 30.6 | 0.00 | 0.00 | 0.00 | 11 | 1015.5 |
| 20260501220134 | 25 | 327 | 17.7 | 25.7 | 0.00 | 0.00 | 0.00 | 12 | 1015.9 |
| 20260501215218 | 25 | 311 | 24.1 | 33.8 | 0.00 | 0.00 | 0.00 | 13 | 1015.8 |
| 20260501214235 | 25 | 301 | 22.5 | 29.0 | 0.00 | 0.00 | 0.00 | 13 | 1016.0 |
| 20260501213317 | 25 | 317 | 20.9 | 33.8 | 0.00 | 0.00 | 0.00 | 13 | 1016.0 |
| 20260501212320 | 25 | 310 | 9.7 | 17.7 | 0.00 | 0.00 | 0.00 | 11 | 1016.4 |
| 20260501211418 | 25 | 324 | 16.1 | 25.7 | 0.00 | 0.00 | 0.00 | 12 | 1016.4 |
| 20260501210335 | 25 | 303 | 19.3 | 29.0 | 0.00 | 0.00 | 0.00 | 12 | 1016.4 |